Flag for United Kingdom

Past Weather in Greenwich Borough, England, United Kingdom — Yesterday and Last 2 Weeks

Now
52 °F

Partly sunny.


Feels Like: 49 °F
Forecast: 70 / 53 °F
Wind: 7 mph from Northwest

Location: Biggin Hill Airport

Current Time: Jul 10, 2020 at 7:42:11 am

Latest Report: Jul 10, 2020 at 6:50 am


Visibility: N/A

Pressure: 29.98 "Hg

Humidity: 100%

Dew Point: 52 °F

Location of Greenwich BoroughLocation

Past Weather in Greenwich Borough — Graph

°F

Greenwich Borough Temperature Yesterday

Maximum temperature yesterday: 63 °F (at 11:20 am)
Minimum temperature yesterday: 57 °F (at 6:20 am)
Average temperature yesterday: 61 °F

High & Low Weather Summary for the Past Weeks

 TemperatureHumidityPressure
High86 °F (Jun 25, 3:20 pm)100% (Jun 27, 7:50 am)30.21 "Hg (Jun 27, 7:50 am)
Low52 °F (Jun 29, 6:20 am)31% (Jun 25, 3:20 pm)29.65 "Hg (Jun 27, 11:50 am)
Average62 °F75%29.89 "Hg
* Reported Jun 25 6:20 am — Jul 10 6:20 am, Greenwich Borough. Weather by CustomWeather, © 2020

Note: Actual official high and low records may vary slightly from our data, if they occured in-between our weather recording intervals... More about our weather records

Greenwich Borough Weather History for the Previous 24 Hours

Scroll right to see more
 ConditionsComfort  
Time TempWeatherWind HumidityBarometerVisibility
6:20 am
Fri, Jul 10
52 °FDrizzle. Partly sunny.10 mph100%29.98 "HgN/A
10:20 pm
Thu, Jul 9
61 °FPassing clouds.8 mph94%29.86 "HgN/A
9:50 pm61 °FPassing clouds.8 mph94%29.86 "HgN/A
9:20 pm61 °FPassing clouds.9 mph94%29.86 "HgN/A
8:50 pm61 °FPartly sunny.9 mph94%29.83 "Hg5 mi
8:20 pm61 °FScattered showers. Broken clouds.8 mph94%29.83 "HgN/A
7:50 pm61 °FScattered showers. Partly sunny.8 mph94%29.86 "Hg5 mi
7:20 pm61 °FPartly sunny.10 mph88%29.86 "HgN/A
6:50 pm63 °FPartly sunny.10 mph83%29.86 "HgN/A
6:20 pm63 °FPartly sunny.12 mph88%29.86 "HgN/A
5:50 pm61 °FPartly sunny.12 mph94%29.86 "HgN/A
5:20 pm63 °FBroken clouds.10 mph88%29.86 "HgN/A
4:50 pm63 °FBroken clouds.14 mph88%29.86 "HgN/A
4:20 pm61 °FDrizzle. Partly sunny.10 mph94%29.89 "Hg5 mi
3:50 pm63 °FDrizzle. Partly sunny.13 mph88%29.89 "HgN/A
3:20 pm63 °FPartly sunny.13 mph83%29.89 "HgN/A
2:50 pm63 °FDrizzle. Partly sunny.14 mph88%29.89 "HgN/A
2:20 pm61 °FScattered showers. Partly sunny.15 mph94%29.89 "HgN/A
1:20 pm63 °FPartly sunny.13 mph88%29.89 "HgN/A
12:50 pm63 °FPartly sunny.12 mph88%29.89 "HgN/A
12:20 pm63 °FPartly sunny.12 mph88%29.89 "HgN/A
11:50 am63 °FPartly sunny.12 mph88%29.89 "HgN/A
11:20 am63 °FPartly sunny.13 mph88%29.89 "HgN/A
10:50 am61 °FPartly sunny.10 mph94%29.89 "HgN/A
10:20 am61 °FPartly sunny.10 mph94%29.92 "HgN/A
9:50 am61 °FPartly sunny.10 mph88%29.92 "HgN/A
9:20 am59 °FPartly sunny.10 mph94%29.92 "HgN/A
8:50 am59 °FScattered showers. Partly sunny.13 mph94%29.92 "HgN/A
8:20 am59 °FPartly sunny.12 mph94%29.89 "HgN/A
7:50 am59 °FPartly sunny.14 mph94%29.89 "HgN/A
7:20 am59 °FPartly sunny.14 mph94%29.89 "HgN/A
Weather by CustomWeather, © 2020

See weather overview